FW6831 Weather Reports


Display with metric or nautical units.
time (UTC)temp
F
wind
direction
speed
MPH
gust
MPH
rain 1hr
in
rain 24hr
in
rain mn
in
humidity
%
barometer
mb
20260504050541 79 116 2.0 5.0 0.00 0.03 0.01 69 1016.8
20260504045542 80 86 1.0 5.0 0.00 0.03 0.01 67 1016.8
20260504045041 81 0 1.0 5.0 0.00 0.03 0.01 68 1016.7
20260504044550 80 271 0.0 7.0 0.00 0.03 0.01 69 1016.6
20260504044042 80 269 2.0 7.0 0.00 0.03 0.01 69 1016.7
20260504043543 79 39 1.0 7.0 0.00 0.03 0.01 70 1016.7
20260504043055 78 173 2.0 10.0 0.00 0.03 0.01 70 1016.7
20260504042543 78 187 4.0 10.0 0.00 0.03 0.01 71 1016.6
20260504042043 79 182 2.0 5.0 0.00 0.03 0.01 70 1016.7
20260504041550 78 158 2.0 5.0 0.00 0.03 0.01 71 1016.7
20260504041042 78 97 1.0 5.0 0.00 0.03 0.01 71 1016.7
20260504040543 78 48 2.0 5.0 0.00 0.03 0.01 72 1016.8
20260504040054 78 82 0.0 5.0 0.00 0.03 0.01 72 1016.8
20260504035545 78 279 2.0 5.0 0.00 0.03 0.01 72 1017.0
20260504035044 78 221 1.0 6.0 0.00 0.03 0.01 73 1017.0
20260504034556 78 165 2.0 7.0 0.00 0.03 0.01 73 1016.9
20260504034048 78 94 3.0 7.0 0.00 0.03 0.01 72 1016.9
20260504033544 78 97 2.0 5.0 0.00 0.03 0.01 72 1017.0
20260504033049 78 178 2.0 7.0 0.00 0.03 0.01 73 1017.0
20260504032544 78 68 3.0 7.0 0.00 0.03 0.01 72 1017.0
20260504032044 77 122 3.0 6.0 0.00 0.03 0.01 72 1017.0
20260504031549 78 44 3.0 6.0 0.00 0.03 0.01 71 1016.9
20260504031043 78 98 2.0 5.0 0.00 0.03 0.01 70 1017.0
20260504030545 79 156 2.0 5.0 0.00 0.03 0.01 71 1017.0
20260504030051 78 330 1.0 4.0 0.00 0.03 0.01 72 1017.1
20260504025544 78 104 1.0 7.0 0.00 0.03 0.01 71 1017.1
20260504025043 78 122 2.0 7.0 0.00 0.03 0.01 71 1017.2
20260504024551 78 77 2.0 5.0 0.00 0.03 0.01 71 1017.3
20260504024044 77 106 2.0 3.0 0.00 0.03 0.01 74 1017.4
20260504023543 76 0 0.0 3.0 0.00 0.03 0.01 74 1017.4
20260504023049 76 150 0.0 2.0 0.00 0.03 0.01 76 1017.7
20260504022544 76 0 0.0 4.0 0.00 0.03 0.01 76 1017.7
20260504022044 76 0 0.0 6.0 0.00 0.03 0.01 77 1017.8
20260504021552 76 0 1.0 6.0 0.00 0.03 0.01 77 1017.9
20260504021044 76 180 2.0 4.0 0.00 0.03 0.01 76 1017.9
20260504020547 76 0 2.0 6.0 0.00 0.03 0.01 75 1018.0
20260504020058 76 0 1.0 6.0 0.00 0.03 0.01 78 1018.1
20260504015544 76 183 1.0 6.0 0.00 0.03 0.01 77 1018.0
20260504015044 75 194 0.0 4.0 0.00 0.03 0.01 79 1018.2
20260504014559 76 115 2.0 4.0 0.00 0.03 0.01 78 1018.3
20260504014045 76 0 0.0 3.0 0.00 0.03 0.01 77 1018.6
20260504013543 77 102 0.0 3.0 0.00 0.03 0.01 77 1018.5
20260504013108 77 0 1.0 3.0 0.00 0.03 0.01 78 1018.5
20260504012543 76 67 0.0 1.0 0.00 0.03 0.01 81 1018.6
20260504012046 75 0 0.0 2.0 0.00 0.03 0.01 81 1018.7
20260504011548 75 0 0.0 4.0 0.00 0.03 0.01 81 1018.9
20260504011042 75 0 1.0 4.0 0.00 0.03 0.01 81 1018.9
20260504010543 76 183 0.0 3.0 0.00 0.03 0.01 81 1019.1
20260504010050 75 0 0.0 3.0 0.00 0.03 0.01 82 1019.0
20260504005546 75 0 0.0 2.0 0.00 0.03 0.01 83 1019.1
20260504005043 74 0 0.0 4.0 0.00 0.03 0.01 84 1019.2
20260504004550 74 0 1.0 4.0 0.00 0.03 0.01 83 1019.4
20260504004043 74 0 1.0 6.0 0.00 0.03 0.01 84 1019.4
20260504003544 74 249 2.0 6.0 0.00 0.03 0.01 83 1019.5
20260504003048 74 115 0.0 5.0 0.00 0.03 0.01 83 1019.5
20260504002545 74 0 0.0 0.0 0.00 0.03 0.01 86 1019.6
20260504002043 73 0 0.0 4.0 0.00 0.03 0.01 86 1019.6
20260504001549 73 0 0.0 4.0 0.00 0.03 0.01 86 1019.7
20260504001045 72 0 0.0 3.0 0.00 0.03 0.01 86 1019.7
20260504000544 72 0 0.0 5.0 0.00 0.03 0.01 87 1019.8
20260504000053 72 174 0.0 5.0 0.00 0.03 0.01 88 1019.8
20260503235545 72 197 0.0 4.0 0.00 0.03 0.01 87 1019.9
20260503235043 72 181 1.0 2.0 0.00 0.03 0.01 88 1019.9
20260503234549 72 0 0.0 4.0 0.00 0.03 0.01 90 1019.9
20260503234043 71 194 0.0 4.0 0.00 0.03 0.01 90 1019.9
20260503233541 71 198 1.0 4.0 0.00 0.03 0.01 89 1019.9
20260503233049 70 116 1.0 3.0 0.00 0.03 0.01 91 1019.9
20260503232543 70 186 0.0 2.0 0.00 0.03 0.01 92 1019.8
20260503232043 70 23 0.0 3.0 0.00 0.03 0.01 93 1019.8
20260503231554 69 188 1.0 3.0 0.00 0.03 0.01 94 1019.8
20260503231042 69 0 0.0 1.0 0.00 0.03 0.01 96 1019.8
20260503230544 69 0 0.0 1.0 0.00 0.03 0.01 97 1019.8
20260503230052 68 0 0.0 1.0 0.00 0.03 0.01 97 1019.8
20260503225543 68 0 0.0 1.0 0.00 0.03 0.01 98 1020.0
20260503225042 67 337 0.0 1.0 0.00 0.03 0.01 98 1019.8
20260503224558 67 0 0.0 1.0 0.00 0.03 0.01 98 1019.9
20260503224043 66 292 0.0 1.0 0.00 0.03 0.01 98 1019.8
20260503223543 66 287 0.0 1.0 0.00 0.03 0.01 99 1019.9
20260503223054 65 0 0.0 1.0 0.00 0.03 0.01 99 1019.8
20260503222542 65 271 0.0 1.0 0.00 0.03 0.01 98 1020.0
20260503222043 65 0 0.0 1.0 0.00 0.03 0.01 98 1019.9
20260503221559 64 295 0.0 1.0 0.00 0.03 0.01 98 1019.9
20260503221046 65 0 0.0 0.0 0.00 0.03 0.01 99 1019.8
20260503220543 65 0 0.0 0.0 0.00 0.03 0.01 99 1019.8
20260503220052 64 0 0.0 0.0 0.00 0.03 0.01 99 1019.8
20260503215543 64 0 0.0 0.0 0.00 0.03 0.01 98 1019.8
20260503215043 64 0 0.0 0.0 0.00 0.03 0.01 98 1019.8
20260503214551 64 0 0.0 0.0 0.00 0.03 0.01 99 1019.7
20260503214043 63 0 0.0 0.0 0.00 0.03 0.01 98 1019.7
20260503213543 63 0 0.0 0.0 0.00 0.03 0.01 98 1019.6
20260503213050 63 0 0.0 0.0 0.00 0.02 0.00 98 1019.6
20260503212543 63 0 0.0 0.0 0.00 0.02 0.00 98 1019.7
20260503212043 63 0 0.0 0.0 0.00 0.02 0.00 98 1019.6
20260503211556 62 0 0.0 0.0 0.00 0.02 0.00 98 1019.7
20260503211044 62 0 0.0 0.0 0.00 0.02 0.00 98 1019.6
20260503210544 62 0 0.0 0.0 0.00 0.02 0.00 98 1019.7
20260503210050 62 0 0.0 0.0 0.00 0.02 0.00 98 1019.5
20260503205543 62 0 0.0 0.0 0.00 0.02 0.00 98 1019.5
20260503205043 62 0 0.0 0.0 0.00 0.02 0.00 98 1019.4
20260503204614 62 0 0.0 0.0 0.00 0.02 0.00 98 1019.4
20260503204044 62 0 0.0 0.0 0.00 0.02 0.00 98 1019.3
20260503203543 62 0 0.0 0.0 0.00 0.02 0.00 98 1019.3
20260503203100 62 0 0.0 0.0 0.00 0.01 0.00 98 1019.2
20260503202545 62 0 0.0 0.0 0.00 0.01 0.00 98 1019.0
20260503202043 62 0 0.0 0.0 0.00 0.01 0.00 98 1019.0
20260503201555 62 0 0.0 0.0 0.00 0.01 0.00 98 1018.9
20260503201043 61 0 0.0 0.0 0.00 0.01 0.00 98 1018.9
20260503200543 62 0 0.0 0.0 0.00 0.01 0.00 98 1018.8
20260503200050 62 0 0.0 0.0 0.00 0.01 0.00 98 1018.7
20260503195543 62 0 0.0 0.0 0.00 0.01 0.00 98 1018.7
20260503195042 62 0 0.0 0.0 0.00 0.01 0.00 98 1018.7
20260503194555 62 0 0.0 0.0 0.00 0.01 0.00 98 1018.7
20260503194043 62 0 0.0 0.0 0.00 0.01 0.00 98 1018.7
20260503193543 62 0 0.0 0.0 0.00 0.01 0.00 98 1018.6
20260503193059 62 0 0.0 0.0 0.00 0.01 0.00 98 1018.7
20260503192542 61 0 0.0 0.0 0.00 0.01 0.00 98 1018.6
20260503192044 62 0 0.0 0.0 0.00 0.01 0.00 98 1018.5
20260503191608 62 0 0.0 0.0 0.00 0.01 0.00 98 1018.5
20260503191044 62 0 0.0 0.0 0.00 0.01 0.00 98 1018.5
20260503190543 62 0 0.0 0.0 0.00 0.01 0.00 98 1018.4
20260503190048 62 0 0.0 0.0 0.00 0.01 0.00 98 1018.4
20260503185543 62 0 0.0 0.0 0.00 0.01 0.00 98 1018.5
20260503185043 62 0 0.0 0.0 0.00 0.01 0.00 98 1018.6
20260503184553 62 0 0.0 0.0 0.00 0.01 0.00 98 1018.4
20260503184046 62 0 0.0 0.0 0.00 0.01 0.00 98 1018.5
20260503183543 62 0 0.0 0.0 0.00 0.01 0.00 98 1018.5
20260503183052 62 0 0.0 0.0 0.00 0.01 0.00 98 1018.6
20260503182542 62 0 0.0 0.0 0.00 0.01 0.00 98 1018.5
20260503182048 62 0 0.0 0.0 0.00 0.01 0.00 98 1018.5
20260503181552 62 0 0.0 0.0 0.00 0.01 0.00 98 1018.4
20260503181043 62 0 0.0 0.0 0.00 0.01 0.00 98 1018.6
20260503180546 62 0 0.0 0.0 0.00 0.01 0.00 98 1018.5
20260503180057 62 0 0.0 0.0 0.00 0.01 0.00 98 1018.5
20260503175542 62 0 0.0 0.0 0.00 0.02 0.00 98 1018.4
20260503175042 62 0 0.0 0.0 0.00 0.02 0.00 98 1018.5
20260503174552 62 0 0.0 0.0 0.00 0.02 0.00 98 1018.6
20260503174044 62 0 0.0 0.0 0.00 0.02 0.00 98 1018.5
20260503173544 62 0 0.0 0.0 0.00 0.02 0.00 98 1018.5
20260503173048 62 0 0.0 0.0 0.00 0.02 0.00 98 1018.6
20260503172542 62 0 0.0 0.0 0.00 0.02 0.00 98 1018.5
20260503172056 62 0 0.0 0.0 0.00 0.02 0.00 98 1018.6
20260503171550 62 0 0.0 0.0 0.00 0.02 0.00 98 1018.6
20260503171043 62 0 0.0 0.0 0.00 0.02 0.00 98 1018.6
20260503170544 62 0 0.0 0.0 0.00 0.02 0.00 98 1018.6
20260503150543 63 0 0.0 0.0 0.00 0.02 0.00 97 1019.9
20260503131044 63 0 0.0 1.0 0.01 0.02 0.02 97 1020.5
20260503130544 63 302 0.0 1.0 0.01 0.02 0.02 97 1020.5
20260503110546 63 0 0.0 1.0 0.00 0.00 0.00 95 1020.8
20260503081551 69 0 0.0 1.0 0.00 0.01 0.00 84 1020.3
20260503081044 70 0 0.0 1.0 0.00 0.01 0.00 84 1020.1
20260503080547 70 0 0.0 1.0 0.00 0.01 0.00 84 1020.1
20260503072542 71 81 0.0 4.0 0.00 0.01 0.00 81 1019.7
20260503072046 71 0 0.0 4.0 0.00 0.01 0.00 80 1019.6
20260503071556 72 101 0.0 2.0 0.00 0.01 0.00 79 1019.6
20260503071043 72 0 0.0 4.0 0.00 0.01 0.00 78 1019.6
20260503070544 72 107 0.0 4.0 0.00 0.01 0.00 77 1019.6